When you browse on this site, cookies collect data to enhance your experience and personalize the content and advertising you see.
Visit our Privacy Policy to learn more. By continuing to use the site, you agree to this use of cookies and data.
  • In Österreich
  • Länderverzeichnis
  • Für 7 Tage
  • Wassertemperatur
  • Wetterkarte
  • News
  • Widgets
  • user-avatar
    Anmelden

    Stündliche Wetter Bialystok

    Heute, 25 Mai, Montag

    Zeit Temperatur Niederschläge Wind Luftdruck Luftfeuchtigkeit
    00:00 +8°C° 0 mm 1 m/S 752 mmHg 92%
    01:00 +8°C° 0 mm 1 m/S 752 mmHg 92%
    02:00 +6°C° 0 mm 2 m/S 752 mmHg 94%
    03:00 +8°C° 0 mm 1 m/S 752 mmHg 93%
    04:00 +8°C° 0 mm 1 m/S 752 mmHg 93%
    05:00 +7°C° 0 mm 0 m/S 752 mmHg 92%
    06:00 +8°C° 0 mm 0 m/S 752 mmHg 90%
    07:00 +9°C° 0 mm 0 m/S 752 mmHg 88%
    08:00 +10°C° 0 mm 0 m/S 753 mmHg 86%
    09:00 +11°C° 0.2 mm 0 m/S 753 mmHg 81%
    10:00 +13°C° 0.2 mm 1 m/S 753 mmHg 76%
    11:00 +14°C° 0.2 mm 1 m/S 753 mmHg 71%
    12:00 +15°C° 0.3 mm 1 m/S 753 mmHg 68%
    13:00 +16°C° 0.3 mm 1 m/S 752 mmHg 64%
    14:00 +18°C° 0.3 mm 1 m/S 752 mmHg 61%
    15:00 +17°C° 0.3 mm 2 m/S 752 mmHg 62%
    16:00 +17°C° 0.3 mm 2 m/S 752 mmHg 63%
    17:00 +17°C° 0.3 mm 2 m/S 752 mmHg 64%
    18:00 +16°C° 0.3 mm 2 m/S 753 mmHg 70%
    19:00 +14°C° 0.3 mm 2 m/S 753 mmHg 76%
    20:00 +13°C° 0.3 mm 1 m/S 753 mmHg 82%
    21:00 +12°C° 0 mm 1 m/S 754 mmHg 85%
    22:00 +11°C° 0 mm 1 m/S 754 mmHg 87%
    23:00 +10°C° 0 mm 1 m/S 754 mmHg 90%

    Morgen, 26 Mai, Dienstag

    Zeit Temperatur Niederschläge Wind Luftdruck Luftfeuchtigkeit
    00:00 +10°C° 0 mm 1 m/S 754 mmHg 91%
    01:00 +8°C° 0 mm 2 m/S 755 mmHg 91%
    02:00 +8°C° 0 mm 2 m/S 755 mmHg 92%
    03:00 +8°C° 0 mm 2 m/S 755 mmHg 93%
    04:00 +8°C° 0 mm 2 m/S 755 mmHg 93%
    05:00 +7°C° 0 mm 2 m/S 756 mmHg 94%
    06:00 +9°C° 0 mm 3 m/S 756 mmHg 90%
    07:00 +11°C° 0 mm 3 m/S 756 mmHg 86%
    08:00 +13°C° 0 mm 4 m/S 757 mmHg 82%
    09:00 +14°C° 0.1 mm 4 m/S 757 mmHg 77%
    10:00 +15°C° 0.1 mm 4 m/S 757 mmHg 71%
    11:00 +18°C° 0.1 mm 4 m/S 757 mmHg 66%
    12:00 +18°C° 0.5 mm 4 m/S 757 mmHg 65%
    13:00 +19°C° 0.5 mm 4 m/S 757 mmHg 65%
    14:00 +19°C° 0.5 mm 4 m/S 756 mmHg 64%
    15:00 +19°C° 0.5 mm 4 m/S 756 mmHg 66%
    16:00 +18°C° 0.5 mm 4 m/S 756 mmHg 68%
    17:00 +18°C° 0.5 mm 4 m/S 756 mmHg 70%
    18:00 +17°C° 0.2 mm 4 m/S 756 mmHg 75%
    19:00 +16°C° 0.2 mm 3 m/S 756 mmHg 80%
    20:00 +14°C° 0.2 mm 3 m/S 756 mmHg 85%
    21:00 +13°C° 0 mm 3 m/S 757 mmHg 88%
    22:00 +11°C° 0 mm 3 m/S 757 mmHg 91%
    23:00 +10°C° 0 mm 2 m/S 757 mmHg 93%

    übermorgen, 27 Mai, Mittwoch

    Zeit Temperatur Niederschläge Wind Luftdruck Luftfeuchtigkeit
    00:00 +10°C° 0 mm 2 m/S 757 mmHg 94%
    01:00 +10°C° 0 mm 3 m/S 757 mmHg 95%
    02:00 +9°C° 0 mm 3 m/S 756 mmHg 95%
    03:00 +9°C° 0 mm 3 m/S 756 mmHg 95%
    04:00 +8°C° 0 mm 3 m/S 756 mmHg 95%
    05:00 +8°C° 0 mm 2 m/S 756 mmHg 95%
    06:00 +10°C° 0 mm 3 m/S 756 mmHg 90%
    07:00 +12°C° 0 mm 3 m/S 757 mmHg 85%
    08:00 +13°C° 0 mm 3 m/S 757 mmHg 79%
    09:00 +16°C° 0 mm 3 m/S 756 mmHg 71%
    10:00 +17°C° 0 mm 4 m/S 756 mmHg 63%
    11:00 +19°C° 0 mm 4 m/S 756 mmHg 54%
    12:00 +19°C° 0 mm 4 m/S 755 mmHg 53%
    13:00 +19°C° 0 mm 4 m/S 755 mmHg 52%
    14:00 +20°C° 0 mm 4 m/S 755 mmHg 51%
    15:00 +19°C° 0.1 mm 4 m/S 755 mmHg 54%
    16:00 +19°C° 0.1 mm 4 m/S 754 mmHg 57%
    17:00 +19°C° 0.1 mm 4 m/S 754 mmHg 60%
    18:00 +17°C° 0.1 mm 4 m/S 754 mmHg 67%
    19:00 +16°C° 0.1 mm 3 m/S 754 mmHg 74%
    20:00 +13°C° 0.1 mm 3 m/S 754 mmHg 80%
    21:00 +13°C° 0 mm 2 m/S 754 mmHg 85%
    22:00 +12°C° 0 mm 2 m/S 754 mmHg 89%
    23:00 +10°C° 0 mm 2 m/S 753 mmHg 94%

    28 Mai, Donnerstag

    Zeit Temperatur Niederschläge Wind Luftdruck Luftfeuchtigkeit
    00:00 +9°C° 0 mm 2 m/S 753 mmHg 94%
    01:00 +10°C° 0 mm 1 m/S 753 mmHg 94%
    02:00 +10°C° 0 mm 1 m/S 753 mmHg 93%
    03:00 +10°C° 0 mm 1 m/S 752 mmHg 92%
    04:00 +10°C° 0 mm 1 m/S 752 mmHg 91%
    05:00 +10°C° 0 mm 1 m/S 752 mmHg 90%
    06:00 +11°C° 0 mm 1 m/S 752 mmHg 89%
    07:00 +12°C° 0 mm 1 m/S 752 mmHg 87%
    08:00 +12°C° 0 mm 1 m/S 751 mmHg 86%
    09:00 +13°C° 0.2 mm 1 m/S 751 mmHg 82%
    10:00 +14°C° 0.2 mm 1 m/S 751 mmHg 77%
    11:00 +16°C° 0.2 mm 2 m/S 751 mmHg 73%
    12:00 +16°C° 0.3 mm 2 m/S 750 mmHg 67%
    13:00 +17°C° 0.3 mm 3 m/S 750 mmHg 61%
    14:00 +18°C° 0.3 mm 3 m/S 750 mmHg 56%
    15:00 +18°C° 0.1 mm 4 m/S 749 mmHg 58%
    16:00 +17°C° 0.1 mm 4 m/S 749 mmHg 61%
    17:00 +16°C° 0.1 mm 5 m/S 749 mmHg 64%
    18:00 +14°C° 0.2 mm 5 m/S 749 mmHg 72%
    19:00 +13°C° 0.2 mm 4 m/S 749 mmHg 80%
    20:00 +11°C° 0.2 mm 4 m/S 749 mmHg 88%
    21:00 +10°C° 0 mm 4 m/S 749 mmHg 90%
    22:00 +8°C° 0 mm 4 m/S 749 mmHg 92%
    23:00 +8°C° 0 mm 3 m/S 749 mmHg 94%

    29 Mai, Freitag

    Zeit Temperatur Niederschläge Wind Luftdruck Luftfeuchtigkeit
    00:00 +9°C° 0 mm 3 m/S 749 mmHg 93%
    01:00 +8°C° 0 mm 4 m/S 748 mmHg 92%
    02:00 +8°C° 0 mm 4 m/S 748 mmHg 91%
    03:00 +8°C° 0 mm 4 m/S 748 mmHg 91%
    04:00 +8°C° 0 mm 4 m/S 748 mmHg 91%
    05:00 +9°C° 0 mm 3 m/S 748 mmHg 91%
    06:00 +10°C° 0 mm 4 m/S 748 mmHg 89%
    07:00 +10°C° 0 mm 4 m/S 748 mmHg 88%
    08:00 +11°C° 0 mm 4 m/S 748 mmHg 86%
    09:00 +11°C° 0.2 mm 4 m/S 748 mmHg 86%
    10:00 +11°C° 0.2 mm 4 m/S 748 mmHg 87%
    11:00 +11°C° 0.2 mm 4 m/S 748 mmHg 87%
    12:00 +12°C° 1.1 mm 4 m/S 747 mmHg 89%
    13:00 +12°C° 1.1 mm 3 m/S 747 mmHg 90%
    14:00 +12°C° 1.1 mm 3 m/S 747 mmHg 92%
    15:00 +11°C° 0.7 mm 3 m/S 747 mmHg 93%
    16:00 +11°C° 0.7 mm 3 m/S 747 mmHg 93%
    17:00 +11°C° 0.7 mm 3 m/S 746 mmHg 94%
    18:00 +11°C° 1 mm 3 m/S 746 mmHg 95%
    19:00 +11°C° 1 mm 3 m/S 746 mmHg 96%
    20:00 +11°C° 1 mm 3 m/S 746 mmHg 97%
    21:00 +10°C° 1 mm 3 m/S 746 mmHg 97%
    22:00 +10°C° 1 mm 2 m/S 746 mmHg 98%
    23:00 +10°C° 1 mm 2 m/S 746 mmHg 98%

    30 Mai, Samstag

    Zeit Temperatur Niederschläge Wind Luftdruck Luftfeuchtigkeit
    00:00 +10°C° 0.4 mm 2 m/S 746 mmHg 98%
    01:00 +10°C° 0.4 mm 2 m/S 746 mmHg 98%
    02:00 +9°C° 0.4 mm 2 m/S 746 mmHg 98%
    03:00 +10°C° 0.2 mm 2 m/S 746 mmHg 98%
    04:00 +10°C° 0.2 mm 2 m/S 746 mmHg 98%
    05:00 +10°C° 0.2 mm 2 m/S 746 mmHg 98%
    06:00 +10°C° 0 mm 2 m/S 746 mmHg 96%
    07:00 +10°C° 0 mm 3 m/S 746 mmHg 95%
    08:00 +11°C° 0 mm 3 m/S 746 mmHg 93%
    09:00 +11°C° 0.1 mm 4 m/S 746 mmHg 89%
    10:00 +12°C° 0.1 mm 4 m/S 746 mmHg 85%
    11:00 +13°C° 0.1 mm 5 m/S 746 mmHg 81%
    12:00 +14°C° 0.1 mm 5 m/S 746 mmHg 78%
    13:00 +14°C° 0.1 mm 5 m/S 746 mmHg 74%
    14:00 +15°C° 0.1 mm 5 m/S 746 mmHg 70%
    15:00 +15°C° 0.3 mm 5 m/S 746 mmHg 74%
    16:00 +14°C° 0.3 mm 4 m/S 746 mmHg 78%
    17:00 +14°C° 0.3 mm 4 m/S 746 mmHg 82%
    18:00 +13°C° 0.1 mm 4 m/S 746 mmHg 85%
    19:00 +12°C° 0.1 mm 3 m/S 746 mmHg 89%
    20:00 +11°C° 0.1 mm 3 m/S 746 mmHg 92%
    21:00 +11°C° 0 mm 3 m/S 746 mmHg 94%
    22:00 +10°C° 0 mm 3 m/S 746 mmHg 95%
    23:00 +9°C° 0 mm 3 m/S 747 mmHg 96%
    Mehr zeigen